These data are preliminary and have not undergone final quality control by the National Climatic Data Center (NCDC). Therefore, these data are subject to revision. Final and certified climate data can be accessed at the NCDC - http://www.ncdc.noaa.gov.

Regional Weather Roundup


000
ASUS46 KSEW 191520
RWRWA

WASHINGTON REGIONAL WEATHER ROUNDUP
NATIONAL WEATHER SERVICE SEATTLE WA
800 AM PDT MON APR 19 2021

NOTE:"FAIR" INDICATES FEW OR NO CLOUDS BELOW 12,000 FEET WITH NO
SIGNIFICANT WEATHER AND/OR OBSTRUCTIONS TO VISIBILITY.

WAZ507-509-555>559-191600-
SEATTLE, TACOMA, EVERETT, AND VICINITY

CITY           SKY/WX    TMP DP  RH WIND       PRES   REMARKS
EVERETT        SUNNY     53  39  59 CALM      30.24R
BOEING FIELD   SUNNY     51  40  65 S3        30.24S
RENTON         SUNNY     51  38  60 SE3       30.24S
SEATAC AIRPORT MOSUNNY   52  43  71 S6        30.24R
JBLM-MCCHORD   NOT AVBL
PUYALLUP       FAIR      50  39  66 CALM      30.25R
BREMERTON      FOG       44  44 100 SW6         N/A  VSB 1/4
JBLM-FT LEWIS  NOT AVBL
TACOMA NARROWS SUNNY     48  43  82 W8        30.26R

WAZ001-503-506-510-514-515-191600- NORTH INTERIOR CITY SKY/WX TMP DP RH WIND PRES REMARKS BELLINGHAM SUNNY 58 31 35 NE12 30.23S FRIDAY HARBOR SUNNY 53 44 71 CALM 30.25R EASTSOUND SUNNY 59 27 29 VRB5G14 30.24R PORT ANGELES SUNNY 54 38 54 W9 30.23S EDIZ HOOK FAIR 49 46 89 CALM 30.24R PORT TOWNSEND FAIR 52 45 76 E6 30.23S NAS WHIDBEY MOSUNNY 53 44 71 E5 30.27S ARLINGTON SUNNY 50 42 74 S5 30.25R BURLINGTON SUNNY 54 43 66 NE5 30.24S
WAZ020-022-039-040-504-511-512-191600- SOUTHWEST INTERIOR CITY SKY/WX TMP DP RH WIND PRES REMARKS SHELTON MOSUNNY 48 45 89 SW5 30.24R OLYMPIA SUNNY 45 40 82 CALM 30.26R CHEHALIS FAIR 45 41 87 S7 30.27R KELSO CLOUDY 48 43 82 S3 30.27R VANCOUVER SUNNY 50 39 66 NW3 30.24R SCAPPOOSE, OR SUNNY 48 39 71 NW5 30.25R PORTLAND, OR MOSUNNY 50 41 71 NW3 30.25R
WAZ021-516-517-191600- WASHINGTON COAST CITY SKY/WX TMP DP RH WIND PRES REMARKS FORKS CLOUDY 46 45 96 CALM 30.23R HOQUIAM CLOUDY 49 45 86 S6 30.26R ASTORIA, OR CLOUDY 46 43 89 SE8 30.25R
WAZ019-023-024-040-567>569-191600- CASCADE MOUNTAINS AND COLUMBIA GORGE CITY SKY/WX TMP DP RH WIND PRES REMARKS STAMPEDE PASS SUNNY 38 29 70 VRB3 30.27R TROUTDALE, OR SUNNY 50 37 61 CALM 30.25R HOOD RIVER, OR SUNNY 54 34 47 MISG 30.32R THE DALLES, OR SUNNY 54 33 45 E9 30.34R
WAZ026-027-041>044-520-521-191600- EAST SLOPES CITY SKY/WX TMP DP RH WIND PRES REMARKS OMAK SUNNY 51 26 37 N9 30.37S WENATCHEE PTSUNNY 50 25 37 E8 30.37R ELLENSBURG MOSUNNY 47 26 44 S6 30.36R YAKIMA SUNNY 51 24 34 VRB7 30.39R SUNNYSIDE ARPT CLOUDY 50 22 32 NE9G18 30.37R YAKIMA TC NOT AVBL
WAZ028-034-035-191600- COLUMBIA BASIN CITY SKY/WX TMP DP RH WIND PRES REMARKS EPHRATA SUNNY 48 18 30 NE10 30.37R MOSES LAKE SUNNY 50 13 22 NE20G29 30.37R PASCO SUNNY 50 27 40 N12 30.36R RICHLAND ARPT SUNNY 52 23 32 N13G22 30.37R HERMISTON, OR SUNNY 50 29 44 N7 30.35R
WAZ036>038-191600- NORTHEAST WASHINGTON CITY SKY/WX TMP DP RH WIND PRES REMARKS SPOKANE GEIGER SUNNY 40 12 32 NE21 30.33R SPOKANE FELTS SUNNY 43 15 32 NE12G30 30.36R FAIRCHILD AFB NOT AVBL COEURDALENE,ID SUNNY 40 17 39 N12 30.36R DEER PARK SUNNY 42 11 28 NE14 30.37R
WAZ029>033-191600- SOUTHEAST WASHINGTON CITY SKY/WX TMP DP RH WIND PRES REMARKS PULLMAN SUNNY 43 24 47 NE10 30.26R LEWISTON, ID CLOUDY 49 26 41 NE8 30.26R WALLA WALLA SUNNY 45 28 51 NE13 30.27R PENDLETON, OR PTSUNNY 46 29 51 N14 30.30R